Regional Weather Roundup
Issued by NWS

Home | Current Version | Previous Version | Graphics & Text | Print | Product List | Glossary On
Versions: 1 2 3 4 5 6 7 8 9 10 11 12 13 14 15 16 17 18 19 20 21 22 23 24 25 26 27 28 29 30 31 32 33 34 35 36 37 38 39 40 41 42 43 44 45 46 47 48 49 50
000
ASUS43 KIND 310709
RWRIN

WEATHER ROUNDUP FOR INDIANA
NATIONAL WEATHER SERVICE INDIANAPOLIS IN
300 AM EDT SUN AUG 31 2014

NOTE: "FAIR" INDICATES FEW OR NO CLOUDS BELOW 12,000 FEET WITH NO
SIGNIFICANT WEATHER AND/OR OBSTRUCTIONS TO VISIBILITY.

* - STATION DOES NOT REPORT WEATHER SUCH AS PRECIPITATION OR FOG.

+ - STATION NOT QUALITY CONTROLLED BY THE NATIONAL WEATHER SERVICE.
    USE DATA WITH CAUTION...ESPECIALLY DEWPOINT AND RELATIVE
    HUMIDITY OBSERVATIONS.

INZ001>003-010>013-019-020-310800-
NORTHWEST INDIANA

CITY           SKY/WX    TMP DP  RH WIND       PRES   REMARKS
GARY /AIRPORT/ CLOUDY    71  68  92 CALM      29.93S
KNOX *+        CLOUDY    68  65  90 S6        29.93F
LA PORTE +     CLOUDY    67  65  94 SW3       29.94F
MICHIGAN CITY+ CLOUDY    66  64  94 CALM      29.93F
MONTICELLO +   RAIN      67  65  96 SW7       29.96F
RENSSELAER +   CLOUDY    68  68 100 S6        29.94F
VALPARAISO     CLOUDY    67  65  93 S6        29.94F

$$

LMZ046-743>745-310800-
SOUTHERN LAKE MICHIGAN

STATION/POSITION TIME  TEMP WIND        PRES
                       AIR  DIR/SP/G
                 (UTC) (F)  (DEG/KT/KT) (MB)
MICHIGAN CITY    0700   69  180/  7/ 10   N/A

$$

INZ004-005-014>016-021>024-310800-
NORTH CENTRAL INDIANA

CITY           SKY/WX    TMP DP  RH WIND       PRES   REMARKS
GOSHEN         CLOUDY    74  70  87 S8        29.95S FOG
LOGANSPORT +   RAIN      68  64  88 S6        29.97F
PERU/GRISSOM   LGT RAIN  71  71 100 SW9       29.99R
ROCHESTER +    CLOUDY    72  70  94 SW8       29.96S
SOUTH BEND     CLOUDY    70  66  87 S6        29.94F
WARSAW +       CLOUDY    72  70  94 SW5       29.96S

$$

INZ006>009-017-018-025>027-310800-
NORTHEAST INDIANA

CITY           SKY/WX    TMP DP  RH WIND       PRES   REMARKS
ANGOLA *+      CLOUDY    73  64  73 SW5       29.96S
AUBURN +       CLOUDY    73  68  83 SW6       29.98S
FORT WAYNE     CLOUDY    72  69  90 S13       29.98S
HUNTINGTON +   CLOUDY    71  69  92 SW7       29.97S

$$

INZ028-029-035-036-043>045-051>053-310800-
WEST CENTRAL INDIANA

CITY           SKY/WX    TMP DP  RH WIND       PRES   REMARKS
GREENCASTLE +  CLOUDY    70  68  94 S5        30.00F
LAFAYETTE      HVY RAIN  67  66  97 CALM      29.97S FOG
TERRE HAUTE    CLOUDY    71  68  90 S7        29.99S

$$

INZ030>032-037>040-046>048-054>057-064-065-310800-
CENTRAL INDIANA

CITY           SKY/WX    TMP DP  RH WIND       PRES   REMARKS
CP ATTERBURY + LGT RAIN  70  68  94 CALM      30.01F
FRANKFORT +    CLOUDY    71  71 100 SW8       30.00S
GREENWOOD *+   CLOUDY    72  70  94 S6        30.01
INDIANAPOLIS   CLOUDY    70  67  90 S8        29.98F
-EAGLE CREEK   CLOUDY    71  66  84 S6        29.99F
KOKOMO *+      CLOUDY    72  66  83 W8        29.99S
MARION +       CLOUDY    69  67  94 SW3       29.99F FOG
MT COMFORT *+  CLOUDY    70 N/A N/A S3        30.01S
SHELBYVILLE    CLOUDY    72  68  87 S6        30.01F
ZIONSVILLE +   CLOUDY    71  66  83 SW10      30.00S

$$

INZ033-034-041-042-049-050-058-059-310800-
EAST CENTRAL INDIANA

CITY           SKY/WX    TMP DP  RH WIND       PRES   REMARKS
MUNCIE         CLOUDY    71  66  84 SW6       30.00F

$$

INZ060-061-067>069-081>083-085>088-310800-
SOUTHWEST INDIANA

CITY           SKY/WX    TMP DP  RH WIND       PRES   REMARKS
EVANSVILLE     CLOUDY    72  70  93 S5        30.00S
WASHINGTON +   CLOUDY    70  70 100 S3        29.99S

$$

INZ062-063-066-070>080-084-089>092-310800-
SOUTH CENTRAL AND SOUTHEAST INDIANA

CITY           SKY/WX    TMP DP  RH WIND       PRES   REMARKS
BLOOMINGTON    CLOUDY    70  68  93 S3        30.01F

$$




USA.gov is the U.S. government's official web portal to all federal, state and local government web resources and services.